| time (UTC) | temp F | wind direction | speed MPH | gust MPH | rain 1hr in | rain 24hr in | rain mn in | humidity % | barometer mb |
| 20260507123622 | 42 | 282 | 15.0 | 20.0 | 0.00 | 0.00 | 0.00 | 63 | 1015.1 |
| 20260507123119 | 42 | 288 | 16.0 | 21.0 | 0.00 | 0.00 | 0.00 | 64 | 1015.0 |
| 20260507122614 | 41 | 286 | 11.0 | 17.0 | 0.00 | 0.00 | 0.00 | 65 | 1015.1 |
| 20260507122110 | 41 | 257 | 10.0 | 16.0 | 0.00 | 0.00 | 0.00 | 65 | 1014.8 |
| 20260507121606 | 42 | 250 | 10.0 | 17.0 | 0.00 | 0.00 | 0.00 | 64 | 1015.0 |
| 20260507121102 | 42 | 288 | 13.0 | 18.0 | 0.00 | 0.00 | 0.00 | 64 | 1015.0 |
| 20260507120558 | 41 | 292 | 14.0 | 18.0 | 0.00 | 0.00 | 0.00 | 64 | 1014.8 |
| 20260507120055 | 41 | 259 | 11.0 | 20.0 | 0.00 | 0.00 | 0.00 | 64 | 1014.9 |
| 20260507115551 | 42 | 284 | 13.0 | 18.0 | 0.00 | 0.00 | 0.00 | 64 | 1014.4 |
| 20260507115048 | 42 | 285 | 13.0 | 23.0 | 0.00 | 0.00 | 0.00 | 62 | 1014.7 |
| 20260507114543 | 42 | 284 | 16.0 | 23.0 | 0.00 | 0.00 | 0.00 | 62 | 1014.7 |
| 20260507114041 | 42 | 283 | 13.0 | 18.0 | 0.00 | 0.00 | 0.00 | 62 | 1014.5 |
| 20260507113538 | 42 | 271 | 13.0 | 22.0 | 0.00 | 0.00 | 0.00 | 62 | 1014.7 |
| 20260507113035 | 42 | 261 | 12.0 | 20.0 | 0.00 | 0.00 | 0.00 | 61 | 1014.4 |
| 20260507112533 | 42 | 249 | 13.0 | 17.0 | 0.00 | 0.00 | 0.00 | 62 | 1014.7 |
| 20260507112029 | 42 | 278 | 14.0 | 18.0 | 0.00 | 0.00 | 0.00 | 63 | 1014.7 |
| 20260507111526 | 40 | 256 | 11.0 | 13.0 | 0.00 | 0.00 | 0.00 | 64 | 1014.5 |
| 20260507111023 | 39 | 231 | 8.0 | 10.0 | 0.00 | 0.00 | 0.00 | 69 | 1014.7 |
| 20260507110520 | 39 | 209 | 8.0 | 11.0 | 0.00 | 0.00 | 0.00 | 69 | 1014.5 |
| 20260507110016 | 39 | 217 | 9.0 | 11.0 | 0.00 | 0.00 | 0.00 | 69 | 1014.8 |
| 20260507105513 | 39 | 254 | 8.0 | 13.0 | 0.00 | 0.00 | 0.00 | 69 | 1014.9 |
| 20260507105009 | 39 | 233 | 9.0 | 11.0 | 0.00 | 0.00 | 0.00 | 69 | 1014.8 |
| 20260507104507 | 39 | 236 | 9.0 | 13.0 | 0.00 | 0.00 | 0.00 | 68 | 1015.1 |
| 20260507104003 | 39 | 250 | 9.0 | 15.0 | 0.00 | 0.00 | 0.00 | 67 | 1015.0 |
| 20260507103500 | 40 | 229 | 6.0 | 13.0 | 0.00 | 0.00 | 0.00 | 67 | 1015.0 |
| 20260507102955 | 41 | 246 | 9.0 | 11.0 | 0.00 | 0.00 | 0.00 | 65 | 1015.0 |
| 20260507102452 | 41 | 251 | 12.0 | 15.0 | 0.00 | 0.00 | 0.00 | 63 | 1014.9 |
| 20260507101949 | 41 | 270 | 13.0 | 15.0 | 0.00 | 0.00 | 0.00 | 62 | 1014.9 |
| 20260507101443 | 41 | 256 | 11.0 | 17.0 | 0.00 | 0.00 | 0.00 | 62 | 1014.8 |
| 20260507100940 | 42 | 245 | 10.0 | 14.0 | 0.00 | 0.00 | 0.00 | 61 | 1014.9 |
| 20260507100437 | 42 | 259 | 10.0 | 17.0 | 0.00 | 0.00 | 0.00 | 61 | 1014.8 |
| 20260507095935 | 42 | 253 | 13.0 | 17.0 | 0.00 | 0.00 | 0.00 | 61 | 1014.9 |
| 20260507095433 | 42 | 247 | 13.0 | 17.0 | 0.00 | 0.00 | 0.00 | 62 | 1014.9 |
| 20260507094924 | 42 | 252 | 11.0 | 18.0 | 0.00 | 0.00 | 0.00 | 62 | 1014.7 |
| 20260507094420 | 41 | 256 | 12.0 | 18.0 | 0.00 | 0.00 | 0.00 | 62 | 1014.7 |
| 20260507093917 | 41 | 254 | 11.0 | 17.0 | 0.00 | 0.00 | 0.00 | 62 | 1014.8 |
| 20260507093415 | 41 | 252 | 11.0 | 18.0 | 0.00 | 0.00 | 0.00 | 63 | 1014.9 |
| 20260507092914 | 42 | 245 | 12.0 | 20.0 | 0.00 | 0.00 | 0.00 | 62 | 1014.9 |
| 20260507092409 | 42 | 268 | 15.0 | 20.0 | 0.00 | 0.00 | 0.00 | 62 | 1014.8 |
| 20260507091906 | 41 | 276 | 13.0 | 17.0 | 0.00 | 0.00 | 0.00 | 62 | 1014.9 |
| 20260507091403 | 41 | 245 | 12.0 | 21.0 | 0.00 | 0.00 | 0.00 | 62 | 1014.5 |
| 20260507090858 | 41 | 218 | 9.0 | 21.0 | 0.00 | 0.00 | 0.00 | 62 | 1014.7 |
| 20260507090354 | 41 | 264 | 15.0 | 18.0 | 0.00 | 0.00 | 0.00 | 62 | 1014.8 |
| 20260507085852 | 41 | 238 | 10.0 | 17.0 | 0.00 | 0.00 | 0.00 | 63 | 1014.7 |
| 20260507085348 | 41 | 268 | 12.0 | 15.0 | 0.00 | 0.00 | 0.00 | 63 | 1014.8 |
| 20260507084846 | 41 | 269 | 9.0 | 15.0 | 0.00 | 0.00 | 0.00 | 63 | 1014.8 |
| 20260507084342 | 41 | 262 | 12.0 | 16.0 | 0.00 | 0.00 | 0.00 | 62 | 1014.8 |
| 20260507083840 | 41 | 267 | 14.0 | 17.0 | 0.00 | 0.00 | 0.00 | 63 | 1014.8 |
| 20260507083336 | 41 | 250 | 13.0 | 17.0 | 0.00 | 0.00 | 0.00 | 63 | 1014.7 |
| 20260507082832 | 40 | 259 | 12.0 | 16.0 | 0.00 | 0.00 | 0.00 | 64 | 1014.8 |
| 20260507082328 | 39 | 283 | 12.0 | 16.0 | 0.00 | 0.00 | 0.00 | 64 | 1014.9 |
| 20260507081825 | 40 | 254 | 10.0 | 15.0 | 0.00 | 0.00 | 0.00 | 65 | 1015.0 |
| 20260507081321 | 39 | 240 | 8.0 | 14.0 | 0.00 | 0.00 | 0.00 | 65 | 1014.8 |
| 20260507080818 | 39 | 256 | 10.0 | 16.0 | 0.00 | 0.00 | 0.00 | 65 | 1014.8 |
| 20260507080314 | 39 | 276 | 9.0 | 11.0 | 0.00 | 0.00 | 0.00 | 65 | 1015.0 |
| 20260507075809 | 40 | 267 | 8.0 | 14.0 | 0.00 | 0.00 | 0.00 | 64 | 1015.1 |
| 20260507075307 | 40 | 273 | 7.0 | 13.0 | 0.00 | 0.00 | 0.00 | 64 | 1015.1 |
| 20260507074803 | 40 | 269 | 9.0 | 11.0 | 0.00 | 0.00 | 0.00 | 63 | 1015.1 |
| 20260507074301 | 40 | 239 | 12.0 | 14.0 | 0.00 | 0.00 | 0.00 | 63 | 1015.3 |
| 20260507073757 | 40 | 270 | 9.0 | 17.0 | 0.00 | 0.00 | 0.00 | 63 | 1015.0 |
| 20260507073254 | 39 | 264 | 11.0 | 15.0 | 0.00 | 0.00 | 0.00 | 66 | 1015.5 |
| 20260507072752 | 38 | 246 | 11.0 | 13.0 | 0.00 | 0.00 | 0.00 | 68 | 1015.5 |
| 20260507072249 | 35 | 246 | 9.0 | 10.0 | 0.00 | 0.00 | 0.00 | 73 | 1015.5 |
| 20260507071746 | 34 | 251 | 5.0 | 7.0 | 0.00 | 0.00 | 0.00 | 79 | 1015.6 |
| 20260507071242 | 34 | 249 | 7.0 | 8.0 | 0.00 | 0.00 | 0.00 | 79 | 1015.4 |
| 20260507070739 | 34 | 237 | 7.0 | 9.0 | 0.00 | 0.00 | 0.00 | 79 | 1015.7 |
| 20260507070236 | 35 | 262 | 6.0 | 10.0 | 0.00 | 0.00 | 0.00 | 78 | 1015.5 |
| 20260507065733 | 36 | 248 | 7.0 | 11.0 | 0.00 | 0.00 | 0.00 | 76 | 1016.1 |
| 20260507065230 | 36 | 250 | 9.0 | 15.0 | 0.00 | 0.00 | 0.00 | 74 | 1015.7 |
| 20260507064727 | 36 | 244 | 11.0 | 15.0 | 0.00 | 0.00 | 0.00 | 75 | 1016.2 |
| 20260507064226 | 35 | 241 | 10.0 | 16.0 | 0.00 | 0.00 | 0.00 | 75 | 1015.8 |
| 20260507063723 | 35 | 246 | 8.0 | 15.0 | 0.00 | 0.00 | 0.00 | 76 | 1016.1 |
| 20260507063219 | 35 | 251 | 12.0 | 15.0 | 0.00 | 0.00 | 0.00 | 77 | 1016.2 |
| 20260507062716 | 34 | 252 | 12.0 | 15.0 | 0.00 | 0.00 | 0.00 | 78 | 1016.3 |
| 20260507062214 | 34 | 252 | 8.0 | 14.0 | 0.00 | 0.00 | 0.00 | 79 | 1016.3 |
| 20260507061712 | 33 | 229 | 10.0 | 13.0 | 0.00 | 0.00 | 0.00 | 81 | 1016.3 |
| 20260507061209 | 33 | 246 | 11.0 | 14.0 | 0.00 | 0.00 | 0.00 | 82 | 1016.1 |
| 20260507060707 | 33 | 238 | 8.0 | 13.0 | 0.00 | 0.00 | 0.00 | 82 | 1016.4 |
| 20260507060203 | 33 | 212 | 10.0 | 13.0 | 0.00 | 0.00 | 0.00 | 82 | 1016.3 |
| 20260507055659 | 33 | 246 | 9.0 | 13.0 | 0.00 | 0.00 | 0.00 | 83 | 1016.6 |
| 20260507055155 | 33 | 258 | 9.0 | 13.0 | 0.00 | 0.00 | 0.00 | 83 | 1016.3 |
| 20260507054652 | 33 | 245 | 11.0 | 15.0 | 0.00 | 0.00 | 0.00 | 83 | 1016.4 |
| 20260507054148 | 33 | 226 | 10.0 | 11.0 | 0.00 | 0.00 | 0.00 | 84 | 1016.6 |
| 20260507053647 | 32 | 244 | 11.0 | 14.0 | 0.00 | 0.00 | 0.00 | 84 | 1016.6 |
| 20260507053144 | 32 | 213 | 8.0 | 13.0 | 0.00 | 0.00 | 0.00 | 84 | 1016.8 |
| 20260507052642 | 32 | 218 | 7.0 | 9.0 | 0.00 | 0.00 | 0.00 | 84 | 1016.8 |
| 20260507052138 | 32 | 213 | 7.0 | 10.0 | 0.00 | 0.00 | 0.00 | 85 | 1016.6 |
| 20260507051636 | 32 | 238 | 6.0 | 10.0 | 0.00 | 0.00 | 0.00 | 85 | 1016.8 |
| 20260507051133 | 32 | 235 | 6.0 | 10.0 | 0.00 | 0.00 | 0.00 | 85 | 1016.9 |
| 20260507050630 | 33 | 226 | 7.0 | 13.0 | 0.00 | 0.00 | 0.00 | 85 | 1016.6 |
| 20260507050126 | 33 | 237 | 11.0 | 15.0 | 0.00 | 0.00 | 0.00 | 85 | 1016.7 |
| 20260507045623 | 33 | 236 | 11.0 | 13.0 | 0.00 | 0.00 | 0.00 | 85 | 1016.7 |
| 20260507045120 | 33 | 239 | 15.0 | 18.0 | 0.00 | 0.00 | 0.00 | 85 | 1017.0 |
| 20260507044616 | 33 | 243 | 11.0 | 16.0 | 0.00 | 0.00 | 0.00 | 85 | 1016.6 |
| 20260507044114 | 33 | 218 | 9.0 | 20.0 | 0.00 | 0.00 | 0.00 | 84 | 1016.8 |
| 20260507043609 | 33 | 240 | 14.0 | 15.0 | 0.00 | 0.00 | 0.00 | 84 | 1016.8 |
| 20260507043107 | 33 | 277 | 12.0 | 18.0 | 0.00 | 0.00 | 0.00 | 84 | 1016.8 |
| 20260507042603 | 33 | 232 | 14.0 | 16.0 | 0.00 | 0.00 | 0.00 | 84 | 1016.7 |
| 20260507042058 | 33 | 241 | 13.0 | 18.0 | 0.00 | 0.00 | 0.00 | 84 | 1016.8 |
| 20260507041555 | 33 | 236 | 14.0 | 20.0 | 0.00 | 0.00 | 0.00 | 83 | 1016.6 |
| 20260507041052 | 33 | 247 | 13.0 | 17.0 | 0.00 | 0.00 | 0.00 | 83 | 1016.9 |
| 20260507040549 | 33 | 236 | 16.0 | 18.0 | 0.00 | 0.00 | 0.00 | 83 | 1016.7 |
| 20260507040045 | 34 | 238 | 16.0 | 18.0 | 0.00 | 0.00 | 0.00 | 83 | 1016.9 |
| 20260507035541 | 34 | 242 | 13.0 | 18.0 | 0.00 | 0.00 | 0.00 | 83 | 1016.7 |
| 20260507035037 | 34 | 267 | 11.0 | 18.0 | 0.00 | 0.00 | 0.00 | 83 | 1016.8 |
| 20260507034534 | 34 | 247 | 12.0 | 17.0 | 0.00 | 0.00 | 0.00 | 83 | 1016.9 |
| 20260507034032 | 34 | 244 | 10.0 | 15.0 | 0.00 | 0.00 | 0.00 | 83 | 1016.7 |
| 20260507033529 | 34 | 235 | 13.0 | 15.0 | 0.00 | 0.00 | 0.00 | 83 | 1016.9 |
| 20260507033026 | 34 | 242 | 11.0 | 16.0 | 0.00 | 0.00 | 0.00 | 83 | 1016.9 |
| 20260507032523 | 34 | 237 | 12.0 | 16.0 | 0.00 | 0.00 | 0.00 | 82 | 1017.0 |
| 20260507032020 | 34 | 240 | 9.0 | 14.0 | 0.00 | 0.00 | 0.00 | 83 | 1017.1 |
| 20260507031516 | 34 | 227 | 10.0 | 15.0 | 0.00 | 0.00 | 0.00 | 82 | 1017.0 |
| 20260507031008 | 34 | 229 | 11.0 | 14.0 | 0.00 | 0.00 | 0.00 | 82 | 1017.0 |
| 20260507030504 | 34 | 238 | 8.0 | 13.0 | 0.00 | 0.00 | 0.00 | 82 | 1016.9 |
| 20260507030002 | 34 | 218 | 12.0 | 16.0 | 0.00 | 0.00 | 0.00 | 82 | 1017.1 |
| 20260507025459 | 34 | 242 | 11.0 | 15.0 | 0.00 | 0.00 | 0.00 | 82 | 1016.8 |
| 20260507024957 | 34 | 221 | 15.0 | 16.0 | 0.00 | 0.00 | 0.00 | 82 | 1016.9 |
| 20260507024454 | 34 | 234 | 13.0 | 15.0 | 0.00 | 0.00 | 0.00 | 82 | 1016.7 |
| 20260507023950 | 35 | 246 | 12.0 | 14.0 | 0.00 | 0.00 | 0.00 | 82 | 1017.0 |
| 20260507023446 | 35 | 239 | 13.0 | 16.0 | 0.00 | 0.00 | 0.00 | 82 | 1016.8 |
| 20260507022944 | 35 | 236 | 13.0 | 16.0 | 0.00 | 0.00 | 0.00 | 81 | 1016.9 |
| 20260507022441 | 35 | 241 | 13.0 | 16.0 | 0.00 | 0.00 | 0.00 | 81 | 1016.7 |
| 20260507021936 | 35 | 228 | 13.0 | 18.0 | 0.00 | 0.00 | 0.00 | 81 | 1017.0 |
| 20260507021432 | 35 | 244 | 12.0 | 15.0 | 0.00 | 0.00 | 0.00 | 80 | 1016.8 |
| 20260507020930 | 35 | 230 | 12.0 | 15.0 | 0.00 | 0.00 | 0.00 | 80 | 1016.8 |
| 20260507020426 | 36 | 247 | 13.0 | 16.0 | 0.00 | 0.00 | 0.00 | 79 | 1017.1 |
| 20260507015923 | 36 | 248 | 13.0 | 18.0 | 0.00 | 0.00 | 0.00 | 78 | 1017.0 |
| 20260507015421 | 37 | 232 | 15.0 | 21.0 | 0.00 | 0.00 | 0.00 | 77 | 1017.0 |
| 20260507014918 | 37 | 240 | 14.0 | 17.0 | 0.00 | 0.00 | 0.00 | 77 | 1016.9 |
| 20260507014415 | 37 | 222 | 10.0 | 21.0 | 0.00 | 0.00 | 0.00 | 76 | 1016.9 |
| 20260507013911 | 37 | 252 | 13.0 | 17.0 | 0.00 | 0.00 | 0.00 | 75 | 1016.8 |
| 20260507013408 | 38 | 252 | 13.0 | 18.0 | 0.00 | 0.00 | 0.00 | 74 | 1016.9 |
| 20260507012906 | 38 | 253 | 15.0 | 18.0 | 0.00 | 0.00 | 0.00 | 74 | 1017.0 |
| 20260507012402 | 38 | 232 | 16.0 | 20.0 | 0.00 | 0.00 | 0.00 | 72 | 1017.1 |
| 20260507011859 | 39 | 229 | 20.0 | 23.0 | 0.00 | 0.00 | 0.00 | 70 | 1017.1 |
| 20260507011355 | 39 | 265 | 14.0 | 20.0 | 0.00 | 0.00 | 0.00 | 70 | 1017.1 |
| 20260507010849 | 39 | 239 | 15.0 | 18.0 | 0.00 | 0.00 | 0.00 | 70 | 1017.0 |
| 20260507010339 | 39 | 245 | 15.0 | 18.0 | 0.00 | 0.00 | 0.00 | 68 | 1017.3 |
| 20260507005837 | 39 | 238 | 18.0 | 21.0 | 0.00 | 0.00 | 0.00 | 66 | 1017.1 |
| 20260507005333 | 39 | 234 | 14.0 | 21.0 | 0.00 | 0.00 | 0.00 | 66 | 1017.4 |
| 20260507004830 | 40 | 216 | 15.0 | 20.0 | 0.00 | 0.00 | 0.00 | 67 | 1016.9 |
| 20260507004327 | 40 | 239 | 15.0 | 17.0 | 0.00 | 0.00 | 0.00 | 66 | 1017.4 |
| 20260507003824 | 40 | 239 | 17.0 | 20.0 | 0.00 | 0.00 | 0.00 | 65 | 1017.3 |
| 20260507003321 | 40 | 231 | 15.0 | 20.0 | 0.00 | 0.00 | 0.00 | 67 | 1017.0 |
| 20260507002815 | 40 | 246 | 13.0 | 20.0 | 0.00 | 0.00 | 0.00 | 67 | 1017.1 |
| 20260507002311 | 40 | 207 | 14.0 | 20.0 | 0.00 | 0.00 | 0.00 | 65 | 1017.4 |
| 20260507001803 | 40 | 231 | 18.0 | 21.0 | 0.00 | 0.00 | 0.00 | 64 | 1017.1 |
| 20260507001300 | 40 | 219 | 16.0 | 21.0 | 0.00 | 0.00 | 0.00 | 65 | 1017.3 |
| 20260507000756 | 40 | 239 | 13.0 | 21.0 | 0.00 | 0.00 | 0.00 | 64 | 1017.4 |
| 20260507000246 | 40 | 241 | 19.0 | 21.0 | 0.00 | 0.00 | 0.00 | 64 | 1017.5 |
| 20260506235743 | 40 | 245 | 17.0 | 18.0 | 0.00 | 0.00 | 0.00 | 64 | 1017.7 |
| 20260506235238 | 40 | 234 | 12.0 | 20.0 | 0.00 | 0.00 | 0.00 | 64 | 1017.7 |
| 20260506234735 | 40 | 225 | 13.0 | 17.0 | 0.00 | 0.00 | 0.00 | 65 | 1017.6 |
| 20260506234232 | 41 | 236 | 15.0 | 16.0 | 0.00 | 0.00 | 0.00 | 64 | 1017.7 |
| 20260506233730 | 40 | 230 | 15.0 | 18.0 | 0.00 | 0.00 | 0.00 | 66 | 1017.9 |
| 20260506233226 | 40 | 237 | 13.0 | 17.0 | 0.00 | 0.00 | 0.00 | 64 | 1018.0 |
| 20260506232723 | 40 | 240 | 16.0 | 17.0 | 0.00 | 0.00 | 0.00 | 61 | 1017.9 |
| 20260506232218 | 41 | 249 | 12.0 | 18.0 | 0.00 | 0.00 | 0.00 | 63 | 1017.9 |
| 20260506231716 | 41 | 235 | 14.0 | 16.0 | 0.00 | 0.00 | 0.00 | 61 | 1018.1 |
| 20260506231214 | 41 | 266 | 10.0 | 17.0 | 0.00 | 0.00 | 0.00 | 64 | 1017.9 |
| 20260506230710 | 41 | 256 | 13.0 | 17.0 | 0.00 | 0.00 | 0.00 | 63 | 1018.2 |
| 20260506230207 | 41 | 234 | 7.0 | 14.0 | 0.00 | 0.00 | 0.00 | 61 | 1018.0 |
| 20260506225703 | 41 | 222 | 12.0 | 17.0 | 0.00 | 0.00 | 0.00 | 61 | 1017.9 |
| 20260506225200 | 40 | 246 | 14.0 | 18.0 | 0.00 | 0.00 | 0.00 | 61 | 1017.9 |
| 20260506224651 | 40 | 228 | 13.0 | 17.0 | 0.00 | 0.00 | 0.00 | 60 | 1018.1 |
| 20260506224148 | 41 | 242 | 14.0 | 18.0 | 0.00 | 0.00 | 0.00 | 60 | 1018.0 |
| 20260506223645 | 41 | 253 | 15.0 | 17.0 | 0.00 | 0.00 | 0.00 | 58 | 1018.2 |
| 20260506223140 | 41 | 222 | 13.0 | 15.0 | 0.00 | 0.00 | 0.00 | 56 | 1018.3 |
| 20260506222637 | 41 | 249 | 12.0 | 15.0 | 0.00 | 0.00 | 0.00 | 60 | 1018.3 |
| 20260506222133 | 41 | 253 | 15.0 | 17.0 | 0.00 | 0.00 | 0.00 | 57 | 1018.6 |
| 20260506221631 | 41 | 227 | 10.0 | 15.0 | 0.00 | 0.00 | 0.00 | 64 | 1018.3 |
| 20260506221129 | 41 | 236 | 16.0 | 18.0 | 0.00 | 0.00 | 0.00 | 61 | 1018.6 |
| 20260506220625 | 40 | 241 | 12.0 | 17.0 | 0.00 | 0.00 | 0.00 | 61 | 1018.6 |
| 20260506220121 | 41 | 231 | 16.0 | 18.0 | 0.00 | 0.00 | 0.00 | 59 | 1018.8 |
| 20260506215618 | 41 | 224 | 7.0 | 13.0 | 0.00 | 0.00 | 0.00 | 61 | 1018.4 |
| 20260506215113 | 41 | 248 | 12.0 | 14.0 | 0.00 | 0.00 | 0.00 | 61 | 1018.7 |
| 20260506214611 | 40 | 252 | 10.0 | 17.0 | 0.00 | 0.00 | 0.00 | 58 | 1018.8 |
| 20260506214108 | 40 | 236 | 12.0 | 17.0 | 0.00 | 0.00 | 0.00 | 60 | 1018.9 |
| 20260506213606 | 40 | 220 | 10.0 | 15.0 | 0.00 | 0.00 | 0.00 | 62 | 1018.9 |
| 20260506213103 | 40 | 233 | 12.0 | 18.0 | 0.00 | 0.00 | 0.00 | 60 | 1019.0 |
| 20260506212600 | 40 | 245 | 11.0 | 16.0 | 0.00 | 0.00 | 0.00 | 57 | 1019.0 |
| 20260506212054 | 39 | 236 | 10.0 | 15.0 | 0.00 | 0.00 | 0.00 | 60 | 1019.3 |
| 20260506211550 | 39 | 236 | 9.0 | 15.0 | 0.00 | 0.00 | 0.00 | 55 | 1019.3 |
| 20260506211048 | 40 | 236 | 9.0 | 17.0 | 0.00 | 0.00 | 0.00 | 59 | 1019.4 |
| 20260506210544 | 39 | 236 | 13.0 | 17.0 | 0.00 | 0.00 | 0.00 | 58 | 1019.5 |
| 20260506210041 | 39 | 238 | 10.0 | 13.0 | 0.00 | 0.00 | 0.00 | 67 | 1019.4 |
| 20260506205537 | 39 | 209 | 12.0 | 16.0 | 0.00 | 0.00 | 0.00 | 62 | 1019.3 |
| 20260506205027 | 39 | 244 | 12.0 | 18.0 | 0.00 | 0.00 | 0.00 | 64 | 1019.5 |
| 20260506204525 | 39 | 234 | 10.0 | 16.0 | 0.00 | 0.00 | 0.00 | 66 | 1019.5 |
| 20260506204022 | 39 | 239 | 13.0 | 16.0 | 0.00 | 0.00 | 0.00 | 65 | 1019.4 |
| 20260506203521 | 39 | 220 | 8.0 | 10.0 | 0.00 | 0.00 | 0.00 | 64 | 1019.4 |
| 20260506203016 | 39 | 212 | 7.0 | 17.0 | 0.00 | 0.00 | 0.00 | 64 | 1019.4 |
| 20260506202514 | 39 | 211 | 9.0 | 11.0 | 0.00 | 0.00 | 0.00 | 65 | 1019.6 |
| 20260506202010 | 39 | 235 | 14.0 | 16.0 | 0.00 | 0.00 | 0.00 | 64 | 1019.6 |
| 20260506201508 | 39 | 252 | 7.0 | 14.0 | 0.00 | 0.00 | 0.00 | 58 | 1019.7 |
| 20260506200959 | 38 | 251 | 9.0 | 15.0 | 0.00 | 0.00 | 0.00 | 63 | 1019.9 |
| 20260506200455 | 39 | 229 | 11.0 | 14.0 | 0.00 | 0.00 | 0.00 | 65 | 1020.0 |
| 20260506195951 | 39 | 230 | 9.0 | 16.0 | 0.00 | 0.00 | 0.00 | 62 | 1019.9 |
| 20260506195448 | 39 | 272 | 5.0 | 11.0 | 0.00 | 0.00 | 0.00 | 58 | 1020.2 |
| 20260506194939 | 38 | 274 | 6.0 | 11.0 | 0.00 | 0.00 | 0.00 | 59 | 1020.0 |
| 20260506194436 | 39 | 243 | 7.0 | 11.0 | 0.00 | 0.00 | 0.00 | 59 | 1020.1 |
| 20260506193932 | 38 | 223 | 5.0 | 15.0 | 0.00 | 0.00 | 0.00 | 61 | 1020.0 |
| 20260506193429 | 38 | 238 | 10.0 | 13.0 | 0.00 | 0.00 | 0.00 | 59 | 1020.2 |
| 20260506192926 | 38 | 247 | 0.0 | 13.0 | 0.00 | 0.00 | 0.00 | 61 | 1019.9 |
| 20260506192424 | 38 | 248 | 4.0 | 9.0 | 0.00 | 0.00 | 0.00 | 63 | 1020.1 |
| 20260506191921 | 37 | 250 | 12.0 | 14.0 | 0.00 | 0.00 | 0.00 | 66 | 1019.9 |
| 20260506191417 | 37 | 311 | 6.0 | 10.0 | 0.00 | 0.00 | 0.00 | 68 | 1020.2 |
| 20260506190914 | 36 | 315 | 7.0 | 9.0 | 0.00 | 0.00 | 0.00 | 73 | 1020.1 |
| 20260506190410 | 36 | 313 | 5.0 | 10.0 | 0.00 | 0.00 | 0.00 | 70 | 1019.9 |
| 20260506185907 | 37 | 282 | 8.0 | 11.0 | 0.00 | 0.00 | 0.00 | 70 | 1020.2 |
| 20260506185404 | 37 | 233 | 8.0 | 10.0 | 0.00 | 0.00 | 0.00 | 72 | 1020.3 |
| 20260506184902 | 36 | 266 | 4.0 | 11.0 | 0.00 | 0.00 | 0.00 | 75 | 1020.2 |
| 20260506184358 | 37 | 220 | 8.0 | 13.0 | 0.00 | 0.00 | 0.00 | 72 | 1020.3 |
| 20260506183855 | 37 | 198 | 4.0 | 10.0 | 0.00 | 0.00 | 0.00 | 75 | 1020.4 |
| 20260506183350 | 36 | 282 | 10.0 | 11.0 | 0.00 | 0.00 | 0.00 | 75 | 1020.4 |
| 20260506182848 | 36 | 248 | 7.0 | 10.0 | 0.00 | 0.00 | 0.00 | 73 | 1020.8 |
| 20260506182345 | 36 | 267 | 7.0 | 10.0 | 0.00 | 0.00 | 0.00 | 75 | 1020.6 |
| 20260506181842 | 36 | 247 | 11.0 | 13.0 | 0.00 | 0.00 | 0.00 | 75 | 1020.6 |
| 20260506181341 | 36 | 261 | 6.0 | 11.0 | 0.00 | 0.00 | 0.00 | 77 | 1020.6 |
| 20260506180837 | 36 | 110 | 7.0 | 9.0 | 0.00 | 0.00 | 0.00 | 78 | 1020.7 |
| 20260506180333 | 35 | 236 | 9.0 | 10.0 | 0.00 | 0.00 | 0.00 | 79 | 1020.7 |
| 20260506175829 | 35 | 309 | 7.0 | 11.0 | 0.00 | 0.00 | 0.00 | 79 | 1020.7 |
| 20260506175326 | 35 | 317 | 7.0 | 9.0 | 0.00 | 0.00 | 0.00 | 78 | 1020.7 |
| 20260506174824 | 35 | 286 | 8.0 | 9.0 | 0.00 | 0.00 | 0.00 | 81 | 1020.8 |
| 20260506174321 | 35 | 156 | 5.0 | 10.0 | 0.00 | 0.00 | 0.00 | 80 | 1020.8 |
| 20260506173819 | 35 | 291 | 6.0 | 11.0 | 0.00 | 0.00 | 0.00 | 80 | 1020.7 |
| 20260506173315 | 34 | 241 | 5.0 | 7.0 | 0.00 | 0.00 | 0.00 | 80 | 1020.6 |
| 20260506172812 | 35 | 309 | 7.0 | 9.0 | 0.00 | 0.00 | 0.00 | 81 | 1020.7 |
| 20260506172309 | 34 | 202 | 3.0 | 6.0 | 0.00 | 0.00 | 0.00 | 81 | 1020.7 |
| 20260506171806 | 34 | 308 | 5.0 | 7.0 | 0.00 | 0.00 | 0.00 | 80 | 1020.7 |
| 20260506171303 | 34 | 261 | 6.0 | 10.0 | 0.00 | 0.00 | 0.00 | 80 | 1020.6 |
| 20260506170801 | 35 | 306 | 7.0 | 8.0 | 0.00 | 0.00 | 0.00 | 80 | 1020.7 |
| 20260506170257 | 34 | 291 | 4.0 | 8.0 | 0.00 | 0.00 | 0.00 | 80 | 1020.4 |
| 20260506165756 | 34 | 255 | 5.0 | 7.0 | 0.00 | 0.00 | 0.00 | 84 | 1020.6 |
| 20260506165253 | 34 | 223 | 4.0 | 6.0 | 0.00 | 0.00 | 0.00 | 81 | 1020.6 |
| 20260506164750 | 33 | 278 | 3.0 | 6.0 | 0.00 | 0.00 | 0.00 | 84 | 1020.4 |
| 20260506164246 | 33 | 257 | 4.0 | 9.0 | 0.00 | 0.00 | 0.00 | 83 | 1020.4 |
| 20260506163743 | 33 | 246 | 3.0 | 9.0 | 0.00 | 0.00 | 0.00 | 86 | 1020.3 |
| 20260506163238 | 32 | 319 | 7.0 | 9.0 | 0.00 | 0.00 | 0.00 | 84 | 1020.3 |
| 20260506162734 | 32 | 278 | 6.0 | 7.0 | 0.00 | 0.00 | 0.00 | 87 | 1020.3 |
| 20260506162232 | 32 | 197 | 3.0 | 8.0 | 0.00 | 0.00 | 0.00 | 89 | 1020.2 |
| 20260506161729 | 32 | 283 | 5.0 | 8.0 | 0.00 | 0.00 | 0.00 | 89 | 1020.4 |
| 20260506161227 | 31 | 184 | 2.0 | 7.0 | 0.00 | 0.00 | 0.00 | 90 | 1020.3 |
| 20260506160724 | 31 | 326 | 9.0 | 9.0 | 0.00 | 0.00 | 0.00 | 90 | 1020.3 |
| 20260506160220 | 32 | 227 | 5.0 | 8.0 | 0.00 | 0.00 | 0.00 | 90 | 1020.6 |
| 20260506155719 | 32 | 328 | 7.0 | 9.0 | 0.00 | 0.00 | 0.00 | 91 | 1020.3 |
| 20260506155216 | 32 | 299 | 7.0 | 10.0 | 0.00 | 0.00 | 0.00 | 91 | 1020.4 |
| 20260506153323 | 32 | 190 | 3.0 | 7.0 | 0.00 | 0.00 | 0.00 | 92 | 1020.1 |
| 20260506152820 | 31 | 351 | 3.0 | 6.0 | 0.00 | 0.00 | 0.00 | 92 | 1020.0 |
| 20260506152317 | 31 | 335 | 4.0 | 6.0 | 0.00 | 0.00 | 0.00 | 92 | 1019.9 |
| 20260506151817 | 31 | 329 | 7.0 | 9.0 | 0.00 | 0.00 | 0.00 | 92 | 1020.2 |
| 20260506151312 | 31 | 17 | 5.0 | 8.0 | 0.00 | 0.00 | 0.00 | 91 | 1020.1 |
| 20260506150810 | 31 | 327 | 5.0 | 9.0 | 0.00 | 0.00 | 0.00 | 91 | 1020.1 |
| 20260506150307 | 31 | 42 | 7.0 | 8.0 | 0.00 | 0.00 | 0.00 | 91 | 1019.9 |
| 20260506145803 | 31 | 14 | 7.0 | 8.0 | 0.00 | 0.00 | 0.00 | 91 | 1020.1 |
| 20260506145300 | 31 | 351 | 4.0 | 7.0 | 0.00 | 0.00 | 0.00 | 92 | 1020.1 |
| 20260506144757 | 32 | 187 | 4.0 | 7.0 | 0.00 | 0.00 | 0.00 | 92 | 1020.1 |
| 20260506144254 | 32 | 263 | 0.0 | 5.0 | 0.00 | 0.00 | 0.00 | 92 | 1020.3 |
| 20260506143752 | 31 | 34 | 3.0 | 6.0 | 0.00 | 0.00 | 0.00 | 92 | 1020.1 |
| 20260506143249 | 31 | 151 | 3.0 | 5.0 | 0.00 | 0.00 | 0.00 | 93 | 1020.2 |
| 20260506142747 | 31 | 83 | 3.0 | 5.0 | 0.00 | 0.00 | 0.00 | 93 | 1020.0 |
| 20260506142245 | 30 | 193 | 3.0 | 5.0 | 0.00 | 0.00 | 0.00 | 93 | 1019.9 |
| 20260506141743 | 30 | 51 | 4.0 | 6.0 | 0.00 | 0.00 | 0.00 | 93 | 1019.9 |
| 20260506141241 | 30 | 287 | 3.0 | 6.0 | 0.00 | 0.00 | 0.00 | 93 | 1019.7 |
| 20260506140738 | 29 | 5 | 6.0 | 7.0 | 0.00 | 0.00 | 0.00 | 93 | 1019.9 |
| 20260506140235 | 29 | 16 | 6.0 | 6.0 | 0.00 | 0.00 | 0.00 | 93 | 1019.9 |
| 20260506135732 | 29 | 31 | 4.0 | 6.0 | 0.00 | 0.00 | 0.00 | 94 | 1019.9 |
| 20260506135228 | 29 | 338 | 5.0 | 6.0 | 0.00 | 0.00 | 0.00 | 94 | 1019.9 |
| 20260506134725 | 29 | 35 | 6.0 | 7.0 | 0.00 | 0.00 | 0.00 | 94 | 1019.9 |
| 20260506134221 | 29 | 29 | 3.0 | 5.0 | 0.00 | 0.00 | 0.00 | 94 | 1019.7 |
| 20260506133719 | 29 | 348 | 4.0 | 5.0 | 0.00 | 0.00 | 0.00 | 94 | 1019.6 |
| 20260506133215 | 28 | 211 | 2.0 | 2.0 | 0.00 | 0.00 | 0.00 | 94 | 1019.6 |
| 20260506132712 | 28 | 252 | 2.0 | 3.0 | 0.00 | 0.00 | 0.00 | 94 | 1019.6 |
| 20260506132209 | 28 | 17 | 4.0 | 5.0 | 0.00 | 0.00 | 0.00 | 94 | 1019.5 |
| 20260506131707 | 28 | 1 | 2.0 | 2.0 | 0.00 | 0.00 | 0.00 | 94 | 1019.7 |
| 20260506131203 | 28 | 168 | 1.0 | 2.0 | 0.00 | 0.00 | 0.00 | 94 | 1019.9 |
| 20260506130700 | 28 | 214 | 2.0 | 5.0 | 0.00 | 0.00 | 0.00 | 94 | 1019.7 |
| 20260506130157 | 27 | 31 | 2.0 | 5.0 | 0.00 | 0.00 | 0.00 | 94 | 1019.5 |
| 20260506125655 | 27 | 121 | 3.0 | 5.0 | 0.00 | 0.00 | 0.00 | 94 | 1019.5 |
| 20260506125153 | 26 | 3 | 4.0 | 6.0 | 0.00 | 0.00 | 0.00 | 94 | 1019.4 |
| 20260506124650 | 26 | 88 | 5.0 | 6.0 | 0.00 | 0.00 | 0.00 | 94 | 1019.1 |
| 20260506124147 | 26 | 346 | 4.0 | 5.0 | 0.00 | 0.00 | 0.00 | 94 | 1019.3 |